TimeCDT,TemperatureF,Dew PointF,Humidity,Sea Level PressureIn,VisibilityMPH,Wind Direction,Wind SpeedMPH,Gust SpeedMPH,PrecipitationIn,Events,Conditions,WindDirDegrees,DateUTC
12:15 AM,37.9,32.2,80,30.38,10.0,Calm,Calm,-,N/A,,Clear,0,2013-10-14 05:15:00
12:35 AM,37.6,32.0,80,30.37,10.0,Calm,Calm,-,N/A,,Clear,0,2013-10-14 05:35:00
12:55 AM,37.0,32.2,83,30.37,10.0,Calm,Calm,-,N/A,,Clear,0,2013-10-14 05:55:00
1:15 AM,38.8,33.1,80,30.37,10.0,ENE,3.5,-,N/A,,Clear,70,2013-10-14 06:15:00
1:35 AM,36.5,32.2,84,30.37,10.0,Calm,Calm,-,N/A,,Clear,0,2013-10-14 06:35:00
1:55 AM,36.0,32.0,86,30.37,10.0,Calm,Calm,-,N/A,,Clear,0,2013-10-14 06:55:00
2:15 AM,35.8,32.0,86,30.38,10.0,Calm,Calm,-,N/A,,Clear,0,2013-10-14 07:15:00
2:35 AM,35.8,31.5,84,30.38,10.0,Calm,Calm,-,N/A,,Clear,0,2013-10-14 07:35:00
2:55 AM,34.3,31.3,89,30.38,10.0,Calm,Calm,-,N/A,,Clear,0,2013-10-14 07:55:00
3:15 AM,34.9,32.0,89,30.38,10.0,Calm,Calm,-,N/A,,Clear,0,2013-10-14 08:15:00
3:35 AM,35.4,32.4,89,30.38,10.0,NE,3.5,-,N/A,,Clear,40,2013-10-14 08:35:00
3:55 AM,37.4,32.2,81,30.37,10.0,Calm,Calm,-,N/A,,Clear,0,2013-10-14 08:55:00
4:15 AM,38.1,32.4,80,30.36,10.0,ENE,3.5,-,N/A,,Clear,70,2013-10-14 09:15:00
4:35 AM,39.4,32.0,75,30.35,10.0,East,6.9,-,N/A,,Clear,80,2013-10-14 09:35:00
4:55 AM,37.2,32.0,81,30.35,10.0,East,5.8,-,N/A,,Clear,90,2013-10-14 09:55:00
5:15 AM,37.4,32.0,81,30.34,10.0,East,5.8,-,N/A,,Clear,100,2013-10-14 10:15:00
5:35 AM,37.2,32.0,81,30.33,10.0,ESE,6.9,-,N/A,,Clear,110,2013-10-14 10:35:00
5:55 AM,38.1,32.4,80,30.33,10.0,ESE,5.8,-,N/A,,Clear,110,2013-10-14 10:55:00
6:15 AM,38.3,32.5,80,30.33,10.0,East,4.6,-,N/A,,Clear,90,2013-10-14 11:15:00
6:35 AM,37.8,32.4,81,30.33,10.0,East,4.6,-,N/A,,Clear,100,2013-10-14 11:35:00
6:55 AM,36.5,32.0,84,30.33,10.0,ESE,5.8,-,N/A,,Clear,120,2013-10-14 11:55:00
7:15 AM,37.4,32.4,82,30.33,10.0,East,4.6,-,N/A,,Clear,100,2013-10-14 12:15:00
7:35 AM,37.4,32.4,82,30.32,10.0,East,3.5,-,N/A,,Clear,90,2013-10-14 12:35:00
7:55 AM,38.5,32.9,80,30.33,10.0,SE,3.5,-,N/A,,Clear,130,2013-10-14 12:55:00
8:15 AM,43.0,34.7,73,30.32,10.0,ESE,6.9,-,N/A,,Clear,110,2013-10-14 13:15:00
8:35 AM,44.6,35.4,70,30.33,10.0,ESE,6.9,-,N/A,,Clear,120,2013-10-14 13:35:00
8:55 AM,46.8,35.8,66,30.32,10.0,ESE,8.1,-,N/A,,Clear,120,2013-10-14 13:55:00
9:15 AM,48.7,34.7,58,30.31,10.0,ESE,10.4,-,N/A,,Clear,120,2013-10-14 14:15:00
9:35 AM,50.2,35.1,56,30.31,10.0,ESE,10.4,-,N/A,,Clear,120,2013-10-14 14:35:00
9:55 AM,51.8,35.1,53,30.29,10.0,ESE,13.8,-,N/A,,Clear,120,2013-10-14 14:55:00
10:15 AM,52.7,34.9,51,30.28,10.0,ESE,13.8,18.4,N/A,,Clear,120,2013-10-14 15:15:00
10:35 AM,55.0,34.5,46,30.28,10.0,SE,16.1,20.7,N/A,,Clear,130,2013-10-14 15:35:00
10:55 AM,56.7,34.2,43,30.27,10.0,ESE,20.7,26.5,N/A,,Clear,120,2013-10-14 15:55:00
11:15 AM,58.5,33.4,39,30.26,10.0,SE,18.4,26.5,N/A,,Clear,130,2013-10-14 16:15:00
11:35 AM,58.3,32.7,38,30.25,10.0,SE,15.0,28.8,N/A,,Clear,130,2013-10-14 16:35:00
11:55 AM,59.4,33.4,38,30.24,10.0,ESE,18.4,25.3,N/A,,Clear,120,2013-10-14 16:55:00
12:15 PM,60.1,33.8,37,30.24,10.0,ESE,19.6,24.2,N/A,,Clear,120,2013-10-14 17:15:00
12:35 PM,59.5,34.0,38,30.21,10.0,ESE,18.4,23.0,N/A,,Clear,120,2013-10-14 17:35:00
12:55 PM,62.1,34.7,36,30.19,10.0,ESE,19.6,27.6,N/A,,Clear,120,2013-10-14 17:55:00
1:15 PM,61.7,33.6,35,30.18,10.0,ESE,17.3,25.3,N/A,,Clear,120,2013-10-14 18:15:00
1:35 PM,61.5,34.5,36,30.16,10.0,SE,16.1,21.9,N/A,,Clear,130,2013-10-14 18:35:00
1:55 PM,61.7,34.0,35,30.14,10.0,ESE,20.7,26.5,N/A,,Scattered Clouds,120,2013-10-14 18:55:00
2:15 PM,61.2,33.1,35,30.12,10.0,ESE,15.0,26.5,N/A,,Mostly Cloudy,120,2013-10-14 19:15:00
2:35 PM,61.7,32.7,34,30.12,10.0,ESE,18.4,25.3,N/A,,Mostly Cloudy,120,2013-10-14 19:35:00
2:55 PM,61.3,32.7,34,30.10,10.0,SE,16.1,26.5,N/A,,Scattered Clouds,130,2013-10-14 19:55:00
3:15 PM,61.3,32.4,34,30.09,10.0,ESE,18.4,25.3,N/A,,Scattered Clouds,110,2013-10-14 20:15:00
3:35 PM,61.0,33.3,35,30.08,10.0,ESE,15.0,24.2,N/A,,Clear,120,2013-10-14 20:35:00
3:55 PM,61.2,33.4,35,30.07,10.0,ESE,13.8,21.9,N/A,,Scattered Clouds,120,2013-10-14 20:55:00
4:15 PM,61.2,33.3,35,30.06,10.0,ESE,13.8,24.2,N/A,,Mostly Cloudy,120,2013-10-14 21:15:00
4:35 PM,61.9,34.0,35,30.05,10.0,ESE,18.4,-,N/A,,Scattered Clouds,120,2013-10-14 21:35:00
4:55 PM,62.2,34.5,36,30.04,10.0,ESE,13.8,25.3,N/A,,Clear,120,2013-10-14 21:55:00
5:15 PM,62.4,34.9,36,30.04,10.0,ESE,15.0,25.3,N/A,,Clear,120,2013-10-14 22:15:00
5:35 PM,61.7,35.8,38,30.03,10.0,ESE,13.8,24.2,N/A,,Scattered Clouds,120,2013-10-14 22:35:00
5:55 PM,61.0,36.9,41,30.02,10.0,ESE,13.8,-,N/A,,Scattered Clouds,120,2013-10-14 22:55:00
6:15 PM,60.8,36.5,40,30.01,10.0,ESE,13.8,23.0,N/A,,Mostly Cloudy,120,2013-10-14 23:15:00
6:35 PM,60.1,36.5,41,30.02,10.0,SE,16.1,23.0,N/A,,Mostly Cloudy,130,2013-10-14 23:35:00
6:55 PM,59.5,36.5,42,30.00,10.0,ESE,17.3,26.5,N/A,,Scattered Clouds,120,2013-10-14 23:55:00
7:15 PM,58.8,36.5,43,30.00,10.0,ESE,13.8,27.6,N/A,,Clear,120,2013-10-15 00:15:00
7:35 PM,58.5,37.0,45,30.00,10.0,ESE,15.0,24.2,N/A,,Scattered Clouds,120,2013-10-15 00:35:00
7:55 PM,58.1,37.4,46,29.98,10.0,ESE,17.3,24.2,N/A,,Mostly Cloudy,120,2013-10-15 00:55:00
8:15 PM,58.1,37.8,47,29.97,10.0,ESE,18.4,26.5,N/A,,Overcast,120,2013-10-15 01:15:00
8:35 PM,56.3,40.1,55,29.96,10.0,ESE,16.1,24.2,N/A,,Light Drizzle,120,2013-10-15 01:35:00
8:55 PM,56.3,39.6,53,29.96,10.0,ESE,16.1,21.9,N/A,,Overcast,120,2013-10-15 01:55:00
9:15 PM,54.9,41.2,60,29.96,10.0,ESE,15.0,19.6,N/A,Rain,Light Rain,120,2013-10-15 02:15:00
9:35 PM,55.0,41.7,61,29.94,10.0,ESE,16.1,24.2,N/A,Rain,Light Rain,120,2013-10-15 02:35:00
9:55 PM,54.9,41.9,62,29.92,10.0,ESE,15.0,21.9,N/A,,Overcast,120,2013-10-15 02:55:00
10:15 PM,55.4,41.9,60,29.93,10.0,SE,15.0,25.3,N/A,,Overcast,130,2013-10-15 03:15:00
10:35 PM,53.6,43.9,70,29.92,10.0,ESE,12.7,23.0,N/A,Rain,Light Rain,120,2013-10-15 03:35:00
10:55 PM,51.8,45.3,79,29.91,10.0,ESE,13.8,21.9,0.01,Rain,Light Rain,120,2013-10-15 03:55:00
11:15 PM,52.0,44.8,76,29.89,10.0,ESE,17.3,28.8,N/A,,Overcast,120,2013-10-15 04:15:00
11:35 PM,52.7,44.2,73,29.88,10.0,ESE,15.0,20.7,N/A,,Overcast,120,2013-10-15 04:35:00
11:55 PM,53.1,43.7,71,29.86,10.0,ESE,16.1,21.9,N/A,,Overcast,120,2013-10-15 04:55:00